Train No Train Name From To Distance Stops avg_speed (km/hr)
12893 Bhubaneshwar - Balangir Super Fast Bhubaneshwar Balangir 395 14 57
A Train's "Departure" Station, "Arrival" Station and "Distance" may vary. Although we have verified some of this data from enquiry.indianrail.gov.in
Train No Start Date (yyyy-mm-dd) Status Delay Time Source
12893 2017-01-01 Late 29 hours 20 minutes Source
12893 2017-01-02 Late 27 hours 10 minutes Source
12893 2017-01-03 Late 00 hours 15 minutes Source
12893 2017-01-04 Late 01 hours 55 minutes Source
12893 2017-01-05 Late 00 hours 50 minutes Source
12893 2017-01-09 Late 00 hours 40 minutes Source
12893 2017-01-10 Late 22 hours 52 minutes Source
12893 2017-01-11 Late 00 hours 15 minutes Source
12893 2017-01-12 Late 00 hours 15 minutes Source
12893 2017-01-13 Late 00 hours 15 minutes Source
12893 2017-01-15 Late 00 hours 15 minutes Source
12893 2017-01-16 Late 00 hours 15 minutes Source
12893 2017-01-17 Late 00 hours 15 minutes Source
12893 2017-01-18 Late 00 hours 15 minutes Source
12893 2017-01-19 Late 00 hours 15 minutes Source
12893 2017-01-20 Late 00 hours 15 minutes Source
12893 2017-01-21 Late 00 hours 15 minutes Source
12893 2017-01-22 Late 00 hours 15 minutes Source
12893 2017-01-23 Late 00 hours 15 minutes Source
12893 2017-01-24 Late 30 hours 10 minutes Source
12893 2017-01-25 Late 24 hours 26 minutes Source
12893 2017-01-26 On Time 0 Source
12893 2017-01-27 Late 00 hours 15 minutes Source
12893 2017-01-28 Late 00 hours 15 minutes Source
12893 2017-01-29 Late 00 hours 15 minutes Source
12893 2017-01-30 Late 00 hours 15 minutes Source
12893 2017-01-31 Late 00 hours 15 minutes Source
12893 2017-02-01 Late 00 hours 15 minutes Source
12893 2017-02-02 Late 24 hours 23 minutes Source
12893 2017-02-03 Late 00 hours 15 minutes Source
12893 2017-02-05 Late 00 hours 15 minutes Source
12893 2017-02-06 Late 00 hours 15 minutes Source
12893 2017-02-07 Late 00 hours 15 minutes Source
12893 2017-02-08 Late 00 hours 15 minutes Source
12893 2017-02-09 Late 00 hours 15 minutes Source
12893 2017-02-10 Late 28 hours 21 minutes Source
12893 2017-02-12 Late 22 hours 28 minutes Source
12893 2017-02-13 Late 00 hours 15 minutes Source
12893 2017-02-14 Late 00 hours 15 minutes Source
12893 2017-02-16 Late 00 hours 15 minutes Source
12893 2017-02-17 Late 28 hours 45 minutes Source
12893 2017-02-18 Late 24 hours 15 minutes Source
12893 2017-02-19 Late 28 hours 25 minutes Source
12893 2017-02-20 Late 00 hours 15 minutes Source
12893 2017-02-21 Late 00 hours 15 minutes Source
12893 2017-02-22 Late 00 hours 15 minutes Source
12893 2017-02-23 Late 11 hours 38 minutes Source
12893 2017-02-25 Late 00 hours 15 minutes Source
12893 2017-02-26 Late 25 hours 05 minutes Source
12893 2017-02-27 Late 18 hours 20 minutes Source
Page 1 of 2, showing 50 records out of 97 total